Temp
2 1 1 1 1 1 1 1 0 -0 -1 -0 -0 -0 -0 0 1 1 1 1 2 2 3 3 3 3 3 3 3 2 2 3 3 3 3 3 3 3 3 3 4 4 4
1 1 1 0 -0 -1 -1 -1 -0 -0 -0 -1 -1 -1 -0 -0 -0 0 1 2 2 2 2 2 2 2 3 3 2 2 2 1 2 3 2 2 3 3 3 3 3 3 3
1 0 -0 -1 -1 -1 -0 -0 -1 -1 -1 -1 -1 -1 -1 -0 -0 -0 0 1 1 1 2 2 2 2 2 2 2 1 2 -0 2 2 1 1 2 2 3 3 3 3 3
0 -0 -1 -1 -0 -1 -1 -1 -0 -1 -1 -1 -1 -1 -1 -1 -1 -1 -0 -0 0 1 1 1 1 2 1 -0 1 1 -0 0 -0 1 1 1 0 1 1 2 2 2 2
-0 -1 -1 -1 -1 -1 -1 -1 -0 -0 -1 -1 -0 -0 -1 -2 -1 -1 -1 -1 -0 -0 0 0 1 1 -0 -1 -1 -1 1 1 2 1 1 1 1 -0 1 1 1 1 1
-2 -2 -1 -1 -1 -1 -1 -1 -1 -2 -2 -1 -1 -1 -0 -2 -2 -2 -1 -1 -1 -1 -0 -0 -0 -1 -1 -1 -1 -1 -1 -1 -1 -1 0 1 1 1 0 -0 0 1 1
-2 -2 -1 -1 -1 -1 -1 -1 -1 -1 -2 -2 -2 -2 -2 -2 -2 -2 -2 -1 -1 -1 -1 -1 -1 -1 -2 -1 -2 -1 -0 -1 -1 -2 -1 -0 1 2 2 0 1 1 1
-2 -1 -1 -2 -2 -1 -2 -2 -2 -2 -3 -3 -2 -2 -2 -3 -2 -2 -2 -2 -1 -2 -2 -1 -1 -1 -1 -2 -2 -1 -2 -2 -1 -1 -2 -1 -1 0 2 1 1 0 0
-1 -1 -2 -3 -3 -2 -2 -2 -2 -2 -3 -3 -3 -3 -3 -3 -3 -2 -1 -2 -2 -2 -2 -2 -2 -2 -3 -2 -2 -2 -2 -2 -2 -1 -1 -1 -2 0 1 1 0 -1 -0
-1 -2 -3 -3 -4 -3 -3 -2 -2 -2 -3 -3 -3 -4 -4 -4 -4 -3 -3 -3 -2 -2 -3 -2 -2 -2 -2 -2 -3 -2 -2 -2 -2 -2 -3 -3 -2 -0 1 -0 -0 -1 -1
-2 -2 -1 -2 -4 -4 -3 -3 -2 -3 -3 -3 -4 -4 -4 -5 -5 -4 -4 -3 -3 -3 -3 -2 -3 -3 -3 -3 -3 -3 -4 -2 -2 -3 -3 -3 -3 0 0 -1 -1 -1 -1
-2 -2 -2 -3 -3 -4 -4 -4 -4 -4 -3 -3 -4 -4 -3 -4 -4 -3 -4 -4 -3 -4 -3 -3 -3 -4 -3 -3 -2 -3 -3 -3 -3 -4 -3 -3 -2 -1 -1 -2 -2 -1 -1
-2 -3 -3 -2 -2 -3 -3 -3 -3 -4 -4 -4 -4 -4 -4 -4 -4 -4 -4 -4 -4 -4 -3 -3 -4 -3 -3 -3 -2 -3 -3 -4 -3 -4 -4 -3 -3 -2 -3 -2 -2 -2 -2
-4 -3 -4 -4 -3 -3 -3 -3 -4 -3 -4 -5 -5 -5 -4 -4 -4 -4 -4 -4 -4 -4 -4 -4 -4 -4 -3 -3 -4 -3 -3 -5 -6 -5 -4 -3 -4 -4 -3 -3 -3 -2 -2
-3 -3 -5 -4 -4 -3 -3 -4 -3 -3 -4 -5 -5 -5 -5 -4 -4 -4 -4 -5 -4 -4 -4 -4 -3 -4 -3 -4 -4 -5 -6 -5 -5 -4 -4 -4 -4 -5 -4 -4 -3 -3 -3
-3 -3 -4 -4 -5 -4 -3 -3 -3 -3 -4 -4 -5 -5 -4 -5 -4 -5 -4 -4 -4 -4 -4 -4 -4 -5 -4 -4 -6 -6 -6 -6 -5 -4 -5 -5 -5 -5 -5 -4 -3 -3 -3
-3 -3 -4 -5 -4 -5 -4 -4 -3 -4 -4 -4 -4 -5 -4 -5 -4 -5 -4 -4 -4 -4 -4 -5 -5 -5 -5 -6 -7 -6 -6 -5 -5 -5 -5 -5 -5 -5 -5 -4 -5 -4 -4
-3 -3 -5 -4 -5 -5 -4 -4 -4 -3 -4 -4 -5 -5 -5 -5 -5 -5 -5 -6 -5 -5 -6 -5 -5 -5 -6 -6 -6 -6 -6 -5 -5 -5 -5 -5 -5 -5 -4 -4 -5 -5 -4
-3 -4 -5 -5 -5 -5 -6 -4 -4 -4 -5 -5 -5 -5 -5 -5 -4 -5 -5 -6 -5 -5 -5 -5 -5 -6 -6 -8 -7 -7 -7 -6 -5 -6 -6 -6 -6 -6 -6 -6 -5 -5 -4
-3 -4 -5 -5 -5 -6 -6 -4 -5 -6 -6 -5 -5 -5 -5 -5 -5 -5 -5 -6 -6 -6 -6 -6 -7 -8 -8 -8 -7 -7 -8 -8 -7 -7 -7 -7 -7 -7 -6 -5 -5 -5 -5
-4 -4 -5 -5 -6 -6 -5 -5 -5 -5 -5 -5 -5 -5 -5 -6 -6 -6 -6 -6 -7 -7 -7 -7 -8 -8 -8 -7 -7 -8 -9 -8 -8 -7 -8 -8 -6 -6 -5 -6 -6 -6 -5
-3 -4 -5 -5 -6 -5 -5 -5 -5 -5 -5 -5 -6 -7 -7 -7 -7 -7 -7 -7 -7 -7 -8 -9 -9 -9 -8 -9 -8 -9 -9 -9 -8 -8 -7 -6 -6 -6 -6 -6 -6 -6 -6
-3 -4 -5 -5 -6 -5 -5 -6 -6 -6 -6 -5 -6 -7 -7 -7 -7 -7 -7 -7 -8 -9 -9 -8 -9 -9 -9 -9 -9 -10 -9 -8 -7 -7 -7 -7 -6 -7 -7 -6 -6 -6 -6
-4 -4 -5 -5 -5 -5 -6 -6 -6 -6 -6 -6 -6 -7 -7 -7 -7 -7 -8 -8 -9 -10 -11 -10 -10 -9 -8 -8 -9 -9 -8 -7 -7 -7 -7 -7 -7 -7 -7 -7 -7 -7 -7
-4 -4 -4 -5 -5 -5 -5 -5 -5 -5 -6 -6 -6 -6 -7 -7 -7 -9 -10 -10 -10 -9 -8 -8 -8 -9 -10 -10 -8 -7 -7 -7 -7 -7 -7 -7 -7 -7 -7 -7 -7 -7 -8
-4 -4 -4 -4 -5 -5 -5 -5 -5 -6 -6 -6 -6 -7 -7 -6 -7 -7 -8 -8 -8 -8 -8 -9 -10 -10 -10 -8 -7 -7 -7 -7 -8 -8 -8 -8 -7 -8 -8 -8 -8 -8 -8
Height
3083 3081 3079 3077 3075 3073 3072 3071 3069 3067 3065 3064 3063 3062 3061 3061 3061 3061 3062 3064 3067 3070 3073 3078 3084 3089 3092 3093 3098 3102 3106 3109 3115 3118 3119 3120 3122 3126 3128 3128 3131 3133 3135
3080 3078 3076 3073 3070 3067 3065 3063 3061 3059 3056 3054 3054 3053 3053 3053 3054 3055 3056 3057 3059 3061 3065 3069 3073 3078 3082 3086 3088 3095 3098 3101 3109 3110 3112 3113 3117 3120 3123 3125 3126 3128 3130
3075 3074 3071 3067 3063 3060 3056 3053 3049 3046 3043 3040 3039 3039 3040 3042 3045 3048 3050 3052 3052 3053 3056 3060 3065 3069 3074 3080 3083 3088 3093 3097 3100 3103 3105 3107 3110 3116 3117 3119 3122 3124 3126
3070 3067 3063 3058 3053 3049 3043 3037 3031 3026 3024 3022 3019 3020 3024 3030 3036 3040 3042 3044 3046 3047 3050 3053 3057 3061 3067 3072 3077 3084 3088 3092 3094 3097 3099 3101 3107 3109 3113 3115 3117 3120 3121
3065 3060 3054 3047 3042 3036 3029 3023 3018 3015 3012 3009 3007 3005 3008 3015 3023 3029 3033 3035 3039 3041 3044 3046 3050 3055 3059 3067 3072 3077 3082 3084 3088 3093 3098 3099 3102 3104 3107 3109 3113 3115 3116
3059 3052 3045 3038 3032 3025 3017 3012 3005 3000 2998 2996 2995 2993 2992 2999 3008 3015 3022 3027 3032 3035 3038 3041 3045 3050 3053 3061 3067 3070 3075 3077 3080 3083 3089 3096 3099 3101 3102 3104 3106 3109 3112
3050 3041 3035 3029 3021 3014 3007 3002 2995 2987 2985 2983 2983 2982 2982 2985 2993 3002 3011 3018 3024 3028 3032 3036 3039 3045 3049 3054 3060 3063 3067 3072 3075 3078 3083 3089 3096 3098 3098 3099 3101 3104 3106
3040 3033 3026 3018 3011 3004 2999 2993 2985 2978 2977 2976 2973 2971 2970 2973 2979 2988 2997 3007 3016 3022 3026 3029 3034 3039 3042 3048 3053 3058 3063 3065 3068 3072 3077 3082 3089 3093 3094 3094 3096 3100 3102
3031 3023 3014 3008 3002 2996 2991 2986 2979 2974 2971 2968 2964 2961 2960 2962 2968 2973 2982 2995 3006 3013 3018 3022 3027 3032 3037 3042 3046 3051 3056 3059 3063 3069 3073 3077 3079 3087 3090 3091 3092 3094 3097
3021 3013 3001 2994 2991 2988 2984 2980 2974 2969 2966 2962 2959 2955 2954 2955 2957 2963 2969 2982 2996 3005 3010 3015 3020 3025 3032 3037 3041 3045 3048 3053 3057 3060 3066 3071 3073 3082 3085 3086 3089 3091 3091
3014 3004 2995 2988 2983 2982 2979 2975 2971 2966 2963 2959 2954 2948 2949 2951 2954 2960 2966 2976 2988 2997 3004 3009 3014 3019 3026 3031 3036 3040 3044 3048 3051 3055 3063 3067 3069 3074 3078 3082 3085 3086 3088
3007 2999 2990 2985 2981 2977 2974 2970 2967 2963 2959 2956 2952 2948 2946 2949 2953 2957 2962 2970 2982 2989 2998 3004 3009 3017 3021 3029 3031 3037 3041 3044 3048 3053 3059 3064 3068 3069 3073 3077 3081 3083 3084
3001 2993 2984 2980 2977 2974 2970 2967 2964 2959 2957 2954 2951 2949 2945 2947 2952 2955 2961 2970 2979 2986 2993 2999 3005 3012 3017 3021 3028 3031 3035 3038 3045 3050 3056 3060 3063 3067 3072 3074 3077 3079 3080
2996 2986 2977 2973 2972 2970 2966 2961 2958 2953 2951 2951 2952 2950 2947 2950 2952 2958 2964 2971 2977 2983 2990 2997 3003 3008 3014 3019 3022 3027 3030 3034 3039 3048 3052 3057 3061 3065 3067 3074 3073 3076 3077
2990 2981 2974 2970 2967 2965 2962 2957 2951 2948 2947 2948 2950 2952 2952 2951 2956 2961 2964 2970 2975 2982 2987 2994 2999 3005 3011 3016 3019 3024 3029 3035 3040 3046 3052 3057 3060 3064 3068 3071 3069 3071 3070
2986 2978 2971 2968 2964 2961 2958 2953 2947 2943 2944 2947 2949 2951 2954 2956 2960 2962 2965 2970 2974 2981 2987 2992 2997 3003 3008 3011 3017 3023 3030 3035 3041 3047 3052 3055 3059 3061 3066 3066 3065 3067 3068
2983 2976 2971 2968 2964 2959 2957 2950 2947 2942 2943 2947 2950 2952 2955 2957 2960 2964 2967 2971 2975 2980 2985 2993 2998 3001 3006 3011 3016 3024 3030 3036 3041 3046 3050 3055 3059 3062 3063 3063 3062 3065 3068
2981 2974 2970 2968 2963 2959 2954 2950 2948 2946 2945 2948 2951 2954 2956 2958 2961 2964 2968 2971 2976 2981 2987 2992 2997 3001 3005 3011 3018 3024 3029 3037 3041 3046 3050 3054 3057 3058 3060 3060 3062 3064 3064
2980 2972 2969 2966 2962 2958 2952 2949 2947 2945 2945 2948 2951 2954 2957 2960 2962 2965 2969 2973 2977 2981 2986 2991 2996 3001 3005 3012 3020 3026 3031 3037 3042 3046 3049 3051 3054 3056 3057 3060 3060 3059 3057
2980 2973 2969 2966 2963 2958 2954 2950 2948 2947 2947 2948 2950 2953 2957 2961 2964 2966 2970 2973 2979 2983 2988 2993 2998 3004 3010 3015 3022 3027 3032 3037 3040 3042 3046 3051 3053 3056 3055 3054 3053 3053 3052
2980 2973 2970 2967 2963 2960 2956 2954 2952 2950 2950 2950 2950 2953 2957 2960 2963 2967 2971 2976 2980 2984 2989 2994 2999 3007 3013 3017 3022 3025 3029 3033 3038 3043 3046 3049 3051 3051 3051 3051 3050 3049 3047
2980 2974 2971 2968 2965 2963 2959 2958 2956 2955 2953 2953 2954 2955 2959 2963 2967 2971 2975 2979 2984 2987 2992 2998 3002 3007 3012 3018 3022 3026 3030 3035 3038 3042 3046 3047 3048 3047 3047 3047 3046 3043 3040
2980 2976 2973 2970 2967 2966 2964 2962 2960 2960 2961 2960 2961 2963 2966 2970 2974 2978 2981 2983 2987 2992 2995 3001 3006 3010 3015 3020 3024 3026 3031 3036 3039 3041 3043 3043 3044 3044 3044 3042 3040 3036 3032
2981 2977 2974 2972 2970 2968 2967 2967 2966 2964 2965 2967 2969 2970 2973 2975 2978 2981 2984 2988 2992 2996 3001 3004 3009 3014 3017 3021 3025 3029 3033 3035 3037 3039 3039 3040 3041 3040 3038 3036 3033 3029 3026
2981 2978 2976 2974 2972 2971 2970 2969 2970 2970 2970 2971 2973 2975 2977 2979 2981 2984 2989 2993 2996 3001 3005 3009 3012 3015 3019 3024 3027 3030 3032 3034 3035 3036 3037 3037 3036 3034 3032 3030 3026 3021 3016
2981 2979 2977 2976 2975 2974 2973 2973 2973 2973 2974 2976 2978 2979 2982 2983 2986 2989 2993 2996 3000 3004 3006 3008 3013 3017 3021 3025 3027 3029 3031 3032 3032 3033 3033 3032 3030 3028 3025 3022 3018 3014 3009
Wind_Speed
14 15 16 17 18 20 22 24 25 25 27 30 30 29 27 26 29 31 32 33 36 39 39 37 38 43 34 30 32 36 40 34 33 29 27 27 27 26 26 25 25 24 23
17 18 20 23 28 28 32 37 37 37 37 37 40 40 37 33 30 29 32 33 33 36 37 35 33 32 40 39 36 39 39 35 35 30 29 28 27 26 26 26 25 25 24
22 22 24 28 31 36 37 41 44 47 51 50 51 51 48 42 36 30 28 29 31 33 34 33 31 32 33 36 27 39 29 35 31 30 29 27 28 25 27 26 25 24 24
24 29 35 38 39 37 46 50 47 46 40 39 42 54 55 50 41 32 28 27 27 29 30 29 30 28 23 26 25 27 25 29 36 35 32 29 26 25 25 24 23 23 22
27 34 39 41 38 44 50 41 39 36 36 37 36 42 57 57 48 41 34 30 23 22 25 29 29 34 25 25 23 25 26 26 30 22 36 32 28 25 21 21 20 21 21
36 38 44 40 39 43 47 39 40 39 34 33 36 37 45 60 53 47 41 35 29 20 16 21 27 29 32 35 25 22 21 20 20 24 25 34 31 28 23 19 18 19 20
41 46 46 41 42 45 45 37 38 33 31 29 32 35 38 48 58 53 48 42 33 26 19 15 21 26 24 26 32 26 27 20 25 29 29 29 32 32 29 23 20 18 18
40 42 44 41 43 43 38 34 36 27 22 26 28 31 35 39 46 56 58 49 39 29 24 22 18 32 32 23 33 31 33 21 27 33 30 25 29 34 31 22 21 19 18
40 44 41 42 42 41 30 29 27 26 23 22 23 25 28 32 38 46 49 55 45 34 28 26 22 27 29 30 30 28 23 27 27 33 33 27 23 28 29 25 22 18 16
45 50 46 35 29 28 27 26 25 24 23 21 21 22 20 23 30 34 32 52 47 38 31 28 26 28 38 36 28 28 31 32 36 38 31 28 25 29 26 20 19 18 15
45 46 36 27 19 19 23 22 22 21 20 18 18 17 18 15 19 24 30 44 45 39 33 30 30 31 34 31 30 28 27 31 32 25 24 27 25 27 22 19 16 14 15
42 42 35 29 19 17 19 21 16 20 19 19 16 13 12 13 18 24 21 36 41 36 34 31 32 32 32 32 30 29 33 25 26 22 22 24 25 20 18 16 16 15 13
41 42 34 22 20 18 17 23 25 25 19 16 11 10 7 12 13 18 30 33 32 33 32 28 31 30 30 28 34 26 29 32 32 22 22 23 20 19 17 14 13 12 12
41 38 35 18 16 16 19 18 22 25 12 10 7 6 2 12 13 24 25 23 21 25 26 33 25 34 27 22 22 25 25 19 21 23 22 22 18 16 14 15 12 10 10
39 36 29 16 14 14 18 19 24 18 14 6 8 4 5 9 14 22 18 26 22 26 28 29 29 32 28 26 22 25 22 19 20 22 23 22 18 17 15 13 11 9 7
39 35 23 15 12 12 14 19 21 13 15 12 6 9 11 10 11 14 16 15 19 16 26 22 20 19 23 28 26 21 20 23 24 24 20 17 16 14 13 10 7 5 8
40 31 19 16 17 12 11 11 13 5 14 12 7 9 12 11 11 10 17 14 16 20 18 23 19 23 31 28 25 24 25 23 22 19 17 17 16 14 11 4 5 8 10
39 28 17 13 13 10 12 9 5 5 10 11 11 10 8 12 15 13 14 14 17 20 18 15 17 28 33 31 28 27 24 20 20 20 18 16 13 9 7 6 9 11 12
37 27 14 8 8 13 21 13 3 9 10 2 9 9 12 9 8 12 16 15 15 18 14 23 30 31 34 30 25 21 19 21 20 18 16 11 6 5 10 10 8 10 14
35 25 10 5 9 16 15 11 10 7 3 4 9 14 14 10 11 12 15 16 16 21 27 31 34 33 30 32 30 29 25 22 20 14 12 9 11 10 6 7 10 13 16
32 20 7 6 12 14 10 10 12 12 9 9 13 14 15 12 11 13 19 26 30 31 35 38 38 30 27 28 28 25 25 21 16 12 12 11 9 6 7 9 12 15 19
28 17 4 7 13 12 13 10 11 11 13 11 11 13 14 14 17 22 28 29 31 35 36 32 32 32 26 21 23 20 17 15 15 12 12 9 6 6 9 12 15 18 21
23 16 4 4 8 10 13 10 10 11 12 14 18 21 23 25 26 26 28 33 32 29 30 28 22 23 24 22 21 18 14 10 12 11 9 7 7 9 12 16 20 23 25
16 12 7 4 4 5 9 10 8 9 10 14 19 21 21 22 22 24 28 31 31 25 24 24 20 21 22 18 16 12 12 13 11 8 6 7 11 13 16 20 24 26 28
8 8 7 6 7 9 8 7 5 6 7 10 12 18 21 24 26 28 27 26 25 22 19 18 18 18 14 11 11 12 11 10 9 8 9 12 14 16 19 24 27 29 31
4 7 4 3 6 8 8 8 8 6 7 6 10 14 18 23 23 21 20 21 20 21 23 21 18 16 14 13 12 11 10 8 8 11 13 15 17 20 23 28 30 31 33
Wind_Direction
324 321 316 315 310 307 303 292 284 281 283 282 279 276 274 266 255 250 250 250 248 248 249 246 244 243 249 246 238 250 246 226 226 223 225 227 230 235 235 232 234 235 238
317 316 313 315 311 303 306 300 294 291 284 281 279 273 266 264 263 259 251 248 246 245 247 249 246 243 242 250 258 262 250 224 223 221 223 227 230 233 236 238 235 237 239
316 313 311 306 302 298 298 296 290 283 279 272 268 264 261 255 255 259 262 254 246 242 241 241 239 235 233 239 243 247 249 219 219 223 226 227 231 234 236 236 240 240 243
311 313 313 310 306 306 310 306 300 292 284 276 267 249 253 253 251 249 252 250 249 243 238 240 235 234 219 222 231 223 236 239 242 225 226 224 227 232 235 238 238 243 247
311 310 313 313 310 312 313 306 302 293 284 275 271 259 246 246 244 244 241 239 238 243 242 235 227 226 222 220 223 237 243 252 255 258 241 232 226 226 228 230 238 246 249
320 313 311 312 311 313 316 306 308 299 287 275 270 264 250 239 239 240 239 237 234 232 238 240 232 210 213 221 219 221 233 241 248 221 236 243 237 226 221 226 230 238 242
320 310 314 313 309 316 317 310 315 307 286 280 271 265 256 242 236 239 239 239 235 230 238 251 239 231 223 209 224 232 223 239 236 224 224 233 244 237 223 220 230 239 240
315 314 314 312 313 317 313 313 323 320 290 286 279 268 257 245 237 237 238 235 235 232 242 247 232 214 230 221 214 220 224 235 228 229 224 227 236 238 233 222 228 238 240
318 319 315 310 313 317 312 314 326 327 308 307 291 278 258 242 237 233 233 227 228 229 231 236 231 221 221 208 217 227 228 223 223 223 223 226 224 243 236 226 228 231 238
328 326 321 316 311 312 313 313 315 320 314 306 296 284 257 243 233 234 229 211 218 224 224 230 227 223 212 216 211 222 221 217 222 218 225 224 215 228 229 227 230 230 233
332 333 332 319 314 315 313 316 315 309 310 314 308 294 239 244 219 207 225 205 212 216 220 226 223 208 210 210 221 222 228 234 227 205 223 225 213 216 221 220 221 230 240
331 331 325 326 317 315 319 320 318 315 300 305 326 319 231 211 208 212 207 199 200 200 214 222 214 203 203 215 222 226 238 221 212 207 214 215 208 206 206 210 219 229 242
330 330 325 316 316 314 327 326 315 301 291 285 313 332 256 186 190 173 169 177 187 198 192 204 197 199 224 208 217 230 232 219 216 200 205 208 194 195 204 210 223 232 241
334 335 333 315 319 313 314 315 314 306 253 269 273 290 18 172 170 164 173 186 190 194 195 202 197 205 211 226 222 221 215 179 180 192 192 194 190 195 202 213 213 230 245
341 340 332 322 324 307 325 314 312 309 232 241 229 217 174 150 164 174 193 171 185 194 189 191 207 192 211 227 210 185 176 190 191 189 190 190 192 195 196 205 207 223 253
346 341 335 332 347 337 332 327 328 304 211 209 234 195 181 160 171 175 171 172 162 176 188 203 201 198 219 198 176 166 180 178 180 183 188 186 186 187 196 198 207 235 284
346 344 333 335 352 337 340 360 356 297 185 171 202 175 169 157 173 190 187 199 192 195 197 191 203 215 197 170 158 164 167 171 179 177 177 181 188 190 186 201 257 266 291
345 347 336 326 352 346 1 6 15 137 130 190 199 161 182 171 191 203 193 175 180 186 180 194 208 195 175 157 160 162 164 174 180 177 171 182 183 182 192 229 264 269 279
346 347 345 344 7 2 357 11 11 92 87 232 208 184 164 175 179 171 174 173 181 184 199 197 188 173 166 151 157 164 166 176 170 169 175 165 166 207 240 243 264 294 311
345 348 353 0 19 9 356 12 37 65 72 117 141 162 182 187 182 186 213 183 187 179 168 163 157 154 161 159 170 168 170 171 168 167 169 173 209 229 246 286 304 311 311
345 352 17 16 36 12 35 48 45 44 57 107 124 138 147 150 161 170 172 169 168 167 166 158 150 152 161 167 170 167 169 173 155 160 188 213 221 247 278 300 310 313 317
346 351 5 2 42 58 67 65 61 55 61 105 121 125 135 155 160 161 159 166 167 160 151 148 156 166 163 158 158 172 150 162 176 189 202 213 238 281 297 307 313 316 319
342 353 315 11 47 81 69 68 75 74 87 111 127 133 137 142 144 149 155 152 141 146 155 161 156 157 163 169 161 165 162 170 192 200 214 236 266 288 300 308 317 320 320
337 356 31 49 43 86 100 74 79 84 100 123 142 146 150 154 157 161 155 152 150 147 151 160 175 183 181 155 136 150 182 193 198 215 245 275 287 294 308 318 322 320 318
335 356 25 55 89 95 93 89 116 109 124 128 143 160 159 160 160 147 145 147 159 170 171 172 150 138 135 151 172 190 194 202 218 244 266 278 290 303 313 323 323 322 324
359 360 5 90 113 97 79 88 96 133 158 157 157 170 176 174 171 165 162 166 170 164 160 153 156 157 165 185 192 198 209 226 250 265 275 288 300 308 316 325 324 321 324